Theta_e
287 293 294 293 298 295 290 289 291 294 297 304 318 325 327 329 329 328 329 329 330 331 335 336 335 336 338 343 344 345 347 346 346 347 347 346 345 346 348 347 350 352 351 351
286 294 294 300 307 305 307 309 295 308 309 318 324 327 326 325 325 324 325 326 328 330 332 334 338 340 339 343 344 345 345 346 347 348 348 347 346 345 344 345 345 346 350 352
284 291 292 293 305 307 308 310 311 305 314 322 320 322 322 321 322 321 322 323 325 326 329 331 332 333 337 342 344 345 344 345 348 348 349 349 349 348 346 345 344 343 345 348
284 287 282 299 310 311 309 310 313 318 321 321 319 320 321 322 320 319 320 321 322 324 325 325 325 325 330 337 343 345 344 346 348 349 349 350 351 349 349 349 347 345 345 346
285 285 295 301 306 307 304 306 313 313 318 319 320 319 318 321 321 319 319 319 320 323 325 325 324 324 326 329 333 332 332 334 342 349 348 349 349 350 351 350 349 349 348 346
284 285 285 297 307 312 311 300 314 315 315 315 317 308 316 320 320 319 320 320 318 322 322 321 322 325 323 322 323 324 326 329 333 336 342 348 349 350 351 351 349 350 349 350
286 289 294 305 309 312 296 300 315 313 316 316 314 317 320 320 320 319 318 318 318 319 320 321 322 323 322 323 322 324 325 327 330 335 337 345 348 350 350 350 350 348 348 349
287 287 286 307 309 300 307 314 313 314 316 315 317 317 316 316 317 318 317 318 318 316 316 319 322 322 321 321 324 326 327 327 330 334 339 348 349 350 349 349 348 347 346 347
297 297 304 302 304 311 311 310 311 315 317 316 314 315 317 316 313 314 317 316 317 315 314 316 320 320 318 319 321 324 327 329 330 336 339 342 348 349 348 348 349 347 346 345
296 299 299 300 302 304 305 312 315 314 318 316 313 313 315 315 315 315 315 317 315 313 312 311 315 316 317 318 320 321 325 327 328 328 331 342 346 349 349 349 348 348 347 347
293 297 302 304 300 302 303 305 305 306 313 318 316 313 311 312 313 314 314 313 313 312 311 311 313 313 314 317 317 317 321 325 327 328 331 335 338 339 347 351 347 351 351 351
292 296 294 297 300 302 301 303 304 303 303 305 316 315 315 314 311 311 311 312 310 310 311 309 309 310 311 315 314 314 318 322 325 327 329 331 331 333 328 322 317 308 309 326
295 298 298 299 300 300 299 300 303 305 304 303 304 315 316 313 311 313 311 311 310 310 307 305 304 305 306 309 310 316 321 319 323 322 326 324 326 326 327 327 307 305 304 303
297 296 297 297 295 298 298 300 304 307 305 304 304 306 315 314 314 313 310 309 310 306 304 302 301 301 302 306 305 310 314 312 318 319 321 322 323 323 325 327 330 331 314 308
295 296 295 295 295 296 299 300 299 302 305 305 305 304 307 314 313 312 312 311 306 302 300 299 298 299 301 304 301 307 308 310 311 319 318 318 322 321 321 321 323 324 323 314
295 295 295 294 294 295 297 298 298 299 303 304 304 304 305 308 314 313 312 306 301 297 296 295 295 298 301 301 300 300 306 310 311 309 315 313 316 318 317 317 317 318 317 313
290 289 291 290 292 294 295 297 299 300 301 302 301 302 304 306 311 309 308 303 299 296 295 293 294 299 297 296 298 297 302 303 310 307 308 311 310 312 313 314 313 313 314 312
294 293 293 292 292 292 294 296 298 299 299 300 301 301 303 305 307 304 301 298 297 296 294 296 297 296 293 293 297 297 299 302 303 303 305 306 307 308 310 311 311 310 310 311
297 295 294 294 294 294 293 294 295 298 300 300 300 300 300 300 300 299 299 298 294 292 293 294 303 296 291 295 302 297 297 303 302 301 302 304 304 304 305 308 309 309 308 307
297 297 296 294 295 294 293 294 294 294 299 300 300 299 299 299 300 302 301 298 295 295 294 294 292 291 291 294 305 295 296 302 303 301 301 300 301 302 302 302 305 304 306 306
297 297 296 295 293 294 294 293 293 292 294 299 299 298 298 300 300 298 295 294 295 296 296 297 293 291 293 301 295 294 296 296 295 297 299 299 299 298 298 302 304 303 302 301
297 297 296 296 294 293 293 293 293 293 293 293 298 300 299 298 299 298 297 296 297 301 295 292 292 297 301 304 293 293 295 295 293 294 294 295 299 299 298 297 300 302 302 302
298 298 297 296 295 294 293 293 293 293 293 293 293 295 298 299 299 297 295 298 299 300 298 293 291 304 305 296 294 293 293 295 294 293 293 293 294 295 298 299 298 298 300 299
296 296 297 297 294 293 293 294 293 294 294 295 295 295 294 294 296 297 296 299 300 299 298 295 294 301 304 294 293 292 293 293 294 293 294 294 293 294 294 294 298 295 298 299
294 294 295 295 294 295 295 295 293 294 294 294 295 296 296 296 295 298 297 297 299 297 295 298 300 301 296 295 293 292 292 292 293 293 294 294 294 294 294 295 295 294 295 299
294 294 293 294 296 296 297 294 294 295 295 295 297 296 297 297 296 297 296 296 294 295 293 293 295 295 294 294 294 294 294 293 293 293 293 294 295 296 296 296 296 295 295 296
294 295 294 293 293 296 297 296 295 297 297 297 297 297 297 297 297 298 298 296 297 297 295 294 294 296 295 295 295 295 296 296 294 294 295 295 295 297 297 297 296 297 296 295
Wind_Speed
3 4 4 4 4 1 6 5 7 8 10 4 12 15 9 9 13 13 11 12 14 15 11 6 10 10 10 11 11 10 11 12 14 13 13 12 11 11 11 8 9 9 7 7
1 3 6 6 9 5 8 5 3 6 2 0 7 10 16 12 12 15 12 13 13 9 11 11 9 6 7 9 9 7 12 13 11 10 11 12 11 10 9 12 11 7 10 11
4 3 4 6 11 5 9 11 6 6 6 12 11 13 11 15 12 14 13 10 8 9 9 11 10 7 6 3 7 14 15 14 13 12 12 13 13 10 11 12 10 10 11 10
4 2 4 5 2 13 16 15 17 10 9 14 14 11 12 10 14 15 10 11 10 9 8 10 8 7 5 5 5 3 8 13 12 12 14 14 13 13 13 11 12 12 12 12
4 4 4 1 4 2 2 7 12 7 9 14 13 12 16 12 11 9 8 7 7 6 7 8 8 8 6 6 5 6 6 5 4 10 13 13 14 15 15 11 12 13 12 13
3 5 4 2 4 7 3 4 7 6 9 6 2 5 4 8 9 8 5 5 6 9 8 8 7 7 5 7 7 7 6 6 6 6 5 12 15 16 14 13 14 11 13 13
2 5 2 5 12 6 4 5 4 6 8 9 5 4 7 7 7 2 1 4 4 3 8 6 6 4 6 6 8 8 7 7 7 7 6 7 11 12 12 13 12 12 13 12
1 5 3 17 6 2 5 2 5 10 8 10 7 8 8 8 6 5 5 6 6 6 5 5 5 5 8 9 8 7 9 7 7 7 7 8 11 13 11 12 12 12 11 11
4 6 3 10 10 7 4 5 3 6 11 10 6 3 4 3 1 2 5 6 5 4 6 7 6 6 7 8 8 8 9 9 8 8 8 9 8 10 8 10 11 10 9 11
1 5 5 13 17 18 13 6 6 6 6 9 6 5 4 3 4 4 4 3 4 4 7 6 6 4 3 6 7 7 9 11 9 9 10 8 7 4 6 8 9 11 10 11
4 4 2 6 13 15 16 15 14 12 8 10 3 2 3 4 3 4 2 0 4 6 5 5 6 6 7 7 7 6 5 7 8 7 7 8 6 6 5 5 7 8 9 9
2 4 2 5 12 15 14 13 12 9 10 11 4 6 3 3 3 1 2 3 4 2 2 3 6 7 7 8 7 6 4 5 6 6 7 6 8 8 7 8 11 8 11 6
3 2 1 5 8 8 12 11 12 10 6 6 6 5 6 2 0 3 2 4 4 5 6 7 7 6 8 10 8 8 6 5 5 6 6 6 6 7 9 5 3 9 9 6
5 3 5 9 9 12 10 15 13 8 5 6 7 7 6 5 3 4 3 1 4 4 5 6 7 8 9 10 8 7 7 9 4 4 4 5 6 6 6 8 8 5 4 5
3 2 3 3 4 7 9 8 10 10 11 8 6 7 7 6 7 7 5 4 4 4 2 2 4 6 7 7 7 7 5 4 5 4 4 4 4 5 5 6 7 7 7 8
4 1 1 4 6 8 10 11 11 12 12 9 11 8 9 8 9 6 6 7 6 4 2 0 3 5 5 6 7 6 5 9 5 4 4 4 4 5 5 5 6 5 6 8
5 4 3 2 2 4 6 8 8 9 11 12 11 13 12 10 7 6 7 6 7 6 5 3 2 3 4 4 4 3 3 4 7 3 4 4 3 4 5 4 5 5 5 7
4 5 5 4 2 2 3 6 8 9 9 12 12 13 12 10 9 8 8 8 7 5 2 3 3 2 3 4 5 4 2 3 4 4 4 4 5 4 3 4 5 6 5 6
6 6 4 4 4 4 4 3 5 8 8 10 12 12 8 1 6 6 7 6 4 3 3 5 6 5 5 7 7 2 2 2 3 3 4 5 4 4 4 4 4 5 6 6
6 6 7 7 6 4 2 3 5 5 6 7 9 11 9 7 2 7 5 5 3 2 2 4 4 5 7 9 9 3 2 2 2 2 3 3 4 4 4 5 4 4 4 4
8 8 8 7 5 3 2 2 2 4 6 5 6 7 9 8 5 5 6 4 1 1 3 3 3 3 4 6 6 3 2 2 3 2 3 3 3 4 5 4 3 2 2 3
7 7 7 7 6 5 4 3 2 3 4 5 5 5 6 8 7 5 2 2 2 3 2 3 3 7 5 7 4 4 2 1 2 2 2 2 2 2 3 4 4 3 2 0
7 7 7 6 8 6 3 5 5 4 4 5 4 4 4 2 2 4 4 4 4 5 3 4 7 10 8 3 3 4 4 4 3 2 3 2 2 2 3 4 4 3 3 1
5 6 7 6 3 3 7 7 7 7 6 7 7 6 5 4 5 5 5 8 11 9 6 6 7 11 9 3 3 3 3 4 3 4 4 4 3 3 3 3 3 3 4 4
7 6 5 5 6 7 8 7 4 6 6 7 8 7 7 5 5 8 5 6 10 7 6 8 10 10 4 4 4 5 5 4 4 4 5 4 4 4 4 3 4 4 4 5
6 6 6 8 7 5 6 4 5 5 4 6 7 4 5 5 5 6 6 8 6 7 5 5 5 5 5 5 5 5 5 5 4 5 6 5 5 5 5 4 4 4 5 4
5 3 3 4 4 5 5 5 4 7 5 6 6 5 4 5 6 6 7 6 7 7 6 6 5 6 5 5 5 6 6 5 6 5 5 6 6 6 5 5 5 5 5 5
Wind_Direction
247 183 179 100 32 46 170 193 168 209 185 211 150 136 115 96 88 71 43 27 55 46 39 73 144 163 178 178 190 185 199 205 212 210 209 214 212 211 215 203 210 213 205 214
202 247 220 112 23 47 57 351 209 121 132 284 53 112 112 93 82 81 62 42 42 53 62 53 45 67 171 166 183 175 214 221 217 215 212 212 219 215 217 221 224 202 214 218
238 220 132 26 354 66 83 34 309 192 172 127 106 108 92 107 112 105 99 87 70 44 46 50 36 28 23 43 188 198 204 225 214 211 213 216 218 213 212 220 219 218 222 217
213 69 141 181 45 92 83 37 12 44 82 86 100 89 79 72 88 88 75 71 50 42 47 41 18 5 359 16 44 46 227 214 210 204 212 218 213 217 221 219 214 218 226 221
135 73 103 287 25 320 116 45 15 21 77 101 99 86 67 61 63 74 77 70 69 52 53 50 23 351 3 26 41 51 28 6 309 223 217 215 217 220 222 219 222 223 221 222
110 116 149 150 327 326 311 73 11 28 43 5 250 109 90 66 67 57 51 76 73 69 54 47 31 21 21 33 24 13 349 327 300 277 291 232 222 222 223 221 228 228 228 224
73 101 324 36 324 272 118 160 84 76 58 60 80 63 85 75 59 68 246 67 61 95 86 54 31 14 44 38 20 351 320 310 296 283 269 264 247 236 229 225 227 229 235 232
8 77 0 354 341 125 129 66 106 88 77 87 75 70 65 52 28 10 351 25 20 16 28 44 19 11 25 19 350 333 344 322 305 292 279 282 242 229 223 228 228 229 228 234
31 78 3 357 24 16 12 108 85 100 111 101 108 98 76 101 285 20 14 15 8 360 9 357 7 4 24 347 342 336 343 343 327 325 319 303 276 232 226 215 219 227 223 233
114 353 17 28 15 17 17 16 21 35 91 102 113 121 135 111 46 23 18 20 3 348 52 359 319 347 359 343 344 355 350 354 343 336 331 330 332 289 225 216 221 229 227 230
73 336 90 51 22 2 352 2 15 14 1 82 110 147 148 133 144 97 110 342 56 1 32 357 323 355 339 348 347 349 335 339 346 339 335 334 326 304 316 258 227 226 231 230
126 168 139 291 346 346 345 351 341 348 353 23 341 283 323 330 79 109 145 141 143 222 21 358 1 355 343 351 342 323 339 339 348 343 347 348 334 320 293 275 300 280 264 253
112 344 204 276 300 3 331 330 335 326 334 324 317 265 246 188 206 252 336 27 15 10 23 9 5 359 350 340 346 342 346 345 339 3 349 351 337 327 328 326 29 63 41 12
50 52 41 10 324 325 332 329 327 340 331 317 307 318 289 275 207 227 241 240 101 70 34 14 357 349 340 337 342 359 341 339 333 341 353 338 342 337 334 329 330 334 33 21
90 75 166 244 293 330 337 347 355 349 343 355 326 308 312 259 235 208 202 156 137 118 83 39 10 341 329 330 338 338 350 327 330 325 343 328 343 354 351 350 344 346 344 357
140 134 354 327 333 342 347 345 344 337 332 333 326 313 295 281 248 209 177 158 148 185 174 331 356 317 323 338 345 343 345 325 344 344 335 348 348 9 11 359 354 360 359 3
144 161 192 230 297 345 333 335 333 327 321 316 308 301 294 277 241 176 159 158 147 159 173 162 255 277 299 326 346 324 328 318 350 350 351 352 358 2 358 10 1 359 357 5
178 156 175 192 213 291 345 339 330 331 335 320 309 302 281 257 201 173 157 150 139 139 212 226 258 315 352 340 332 331 329 330 349 355 343 357 342 357 5 13 17 10 357 4
178 175 186 196 242 270 287 311 315 324 334 333 332 329 318 27 123 120 124 118 116 129 302 319 336 356 337 331 345 319 293 310 332 350 355 352 355 351 3 8 25 24 17 15
191 179 187 197 207 213 258 279 316 329 336 345 349 354 352 355 170 130 122 113 132 214 287 295 345 341 326 328 339 316 285 270 303 341 345 352 348 337 343 6 23 35 29 32
204 198 203 197 205 184 205 285 350 7 335 336 350 356 347 358 31 109 99 99 265 305 266 338 323 309 316 330 354 335 328 333 343 331 334 311 322 345 343 340 352 20 45 45
206 210 219 217 215 220 211 212 263 335 342 331 335 330 359 355 22 6 71 172 288 291 353 318 292 288 299 343 346 338 347 278 281 297 334 345 281 285 307 316 319 319 325 297
208 213 219 217 220 226 225 229 237 230 263 286 305 317 310 294 325 328 318 334 342 298 296 284 285 296 314 326 316 325 316 317 253 266 273 289 311 298 270 275 264 283 289 243
216 214 225 232 166 200 258 252 232 236 234 250 255 253 254 282 295 266 269 296 311 308 292 276 283 291 300 266 268 280 276 281 271 250 242 245 251 265 278 291 253 266 249 233
210 218 224 202 212 236 236 250 237 257 251 256 257 254 246 222 208 278 292 292 295 296 275 275 287 288 291 282 256 257 262 257 264 259 240 236 242 258 246 253 245 249 268 233
200 214 215 205 216 221 228 173 222 249 231 260 271 249 252 256 240 249 265 266 266 278 289 302 298 291 287 281 269 267 261 258 232 248 249 252 250 243 241 240 244 235 226 245
250 254 261 270 237 223 218 199 200 253 224 232 250 272 251 262 262 262 272 279 279 278 281 281 274 284 283 278 280 272 263 256 237 225 239 244 233 234 236 228 238 234 222 215